Regional Weather Roundup
Issued by NWS

Home | Current Version | Previous Version | Graphics & Text | Print | Product List | Glossary On
Versions: 1 2 3 4 5 6 7 8 9 10 11 12 13 14 15 16 17 18 19 20 21 22 23 24 25 26 27 28
000
ASUS45 KTFX 211710
RWRMT
MONTANA REGIONAL WEATHER ROUNDUP
NATIONAL WEATHER SERVICE GREAT FALLS MT
1100 AM MDT WED JUN 21 2017

NOTE: "FAIR" INDICATES FEW OR NO CLOUDS BELOW 12000 FEET WITH NO
SIGNIFICANT WEATHER AND/OR OBSTRUCTIONS TO VISIBILITY.

MTZ001>007-043-211800-
WEST OF THE DIVIDE

CITY           SKY/WX    TMP DP  RH WIND       PRES   REMARKS
KALISPELL      SUNNY     72  39  30 SW14      29.96F
MISSOULA       SUNNY     71  36  27 SW13G20   30.05F
BUTTE          PTSUNNY   66  39  37 SW10      30.10F
MULLAN PASS    SUNNY     53  34  48 VRB5      30.15S
ANACONDA         N/A     66  34  30 W15G22    30.06F
DEER LODGE       N/A     70  39  32 CALM      30.08F
EUREKA           N/A     68  39  34 MISG      29.97F
HAMILTON         N/A     70  30  23 W5        30.07F
LIBBY            N/A     72  32  23 S9        29.97F
$$

MTZ008-052>055-211800-
SOUTHWEST MONTANA

CITY           SKY/WX    TMP DP  RH WIND       PRES   REMARKS
BOZEMAN        SUNNY     71  48  43 CALM      30.03F
DILLON         SUNNY     70  47  43 SW14G21   30.07S
W YELLOWSTONE  SUNNY     70  45  40 SW9G17    30.14S
ENNIS          SUNNY     72  48  43 SW6G12    30.11F
THREE FORKS      N/A     72  47  40 CALM      30.02S
$$

MTZ009-010-012-014-046-048-049-054-211800-
EAST SLOPES AND CENTRAL MONTANA

CITY           SKY/WX    TMP DP  RH WIND       PRES   REMARKS
CUT BANK       SUNNY     63  43  48 S7        29.95F
GREAT FALLS    SUNNY     69  47  45 SW12      29.95F
MALMSTROM AFB  SUNNY     68  46  45 SW9       29.95F
HELENA         SUNNY     75  36  24 W28G33    30.00S
CHOTEAU          N/A     68  48  49 SE8       29.97F
$$

MTZ011-013-016-021-045-047-050-051-211800-
NORTH CENTRAL MONTANA

CITY           SKY/WX    TMP DP  RH WIND       PRES   REMARKS
HAVRE          MOSUNNY   67  34  29 NW7       29.94F
LEWISTOWN      SUNNY     66  43  43 VRB3      29.98F
N BAR RANCH      N/A     70  41  35 N12G22    30.00F
CHINOOK          N/A     64  39  39 W7        29.93F
FORT BENTON      N/A     70  37  30 MISG        N/A
$$

MTZ017>020-022>027-061-062-211800-
NORTHEAST MONTANA

CITY           SKY/WX    TMP DP  RH WIND       PRES   REMARKS
GLASGOW        SUNNY     69  40  34 NW21G28   29.87F
JORDAN           N/A     74  37  26 NW8G18    29.91S
WOLF POINT     SUNNY     75  40  28 NW20G25   29.85S
MALTA          SUNNY     68  39  34 N10       29.92S
PLENTYWOOD       N/A     68  43  40 NW23G33   29.80R
POPLAR           N/A     70  48  46 NW17G26   29.84S
$$

MTZ028>42-056>058-211800-
SOUTHCENTRAL AND SOUTHEAST MONTANA

CITY           SKY/WX    TMP DP  RH WIND       PRES   REMARKS
BAKER          SUNNY    N/A N/A N/A NW20G32   29.86R
BILLINGS       MOSUNNY   74  46  36 NE5       29.97F
LIVINGSTON     SUNNY     73  48  41 N14       30.00F
MILES CITY     SUNNY     79  41  25 NW15      29.89R
BIG TIMBER     SUNNY     73  46  38 W17       30.01F
FORSYTH          N/A     75  41  29 NW5       29.92R
ROUNDUP          N/A     75  40  28 NE7       29.87F
$$

REGIONAL REPORTS...DAKOTAS

CITY           SKY/WX    TMP DP  RH WIND       PRES   REMARKS
WILLISTON      SUNNY     73  52  47 NW21G30   29.81R
MINOT          CLOUDY    78  56  46 SW17G23   29.68R
DICKINSON      SUNNY     82  47  29 W21       29.76S
BEACH            N/A     77  48  36 NW22      29.86R
CROSBY           N/A     66  46  48 NW25G33   29.76R
TIOGA            N/A     68  57  68 NW26G33   29.78R
WATFORD CITY     N/A     72  55  56 NW21G28   29.78R
BISMARCK       MOSUNNY   83  59  44 W8        29.70F
GRAND FORKS    CLOUDY    68  60  75 SE13      29.72F
FARGO          SUNNY     77  53  43 S23G29    29.73F
BUFFALO SD       N/A     84  51  31 NW25G32   29.77S
RAPID CITY     SUNNY     88  55  32 N10       29.83F
$$

REGIONAL REPORTS...WYOMING/IDAHO/WASHINGTON

CITY           SKY/WX    TMP DP  RH WIND       PRES   REMARKS
GILLETTE       SUNNY     79  51  37 NW21      29.96S
SHERIDAN       CLOUDY    76  52  43 N10       29.98F
BUFFALO WY     CLOUDY    74  50  42 N14G25    30.03S
CODY           SUNNY     74  50  42 NE15      30.02F
YELLOWSTONE LA   N/A     69  35  28 W12G24    30.22F
IDAHO FALLS    CLOUDY    75  55  49 S20       30.05F
SALMON         SUNNY     72  46  40 N14       30.06F
BOISE          SUNNY     73  49  42 W16       30.06F
SPOKANE        MOSUNNY   67  37  33 SW12      30.09F
$$

REGIONAL REPORTS...ALBERTA

CITY           SKY/WX    TMP DP  RH WIND       PRES   REMARKS
EDMONTON       MOSUNNY   57  36  44 NW20G30   29.80F
CALGARY        MOSUNNY   59  39  47 S12G17    29.92F
LETHBRIDGE     MOSUNNY   63  39  42 SE5       29.92F
MEDICINE HAT   MOSUNNY   63  36  36 W8        29.91F
$$

REGIONAL REPORTS...SASKATCHEWAN

CITY           SKY/WX    TMP DP  RH WIND       PRES   REMARKS
SWIFT CURRENT  SUNNY     63  36  36 NW24G35   29.85S
REGINA         MOSUNNY   66  43  42 W25G38    29.75S
SASKATOON      MOSUNNY   63  45  51 W22G29    29.68S
CYPRESS HILLS    N/A     55  36  47 W9          N/A
VAL MARIE        N/A     66  37  34 N15         N/A
ROCKGLEN         N/A     64  36  34 NW20G29     N/A
ASSINIBOIA       N/A     59  41  51 W26G33      N/A
$$




USA.gov is the U.S. government's official web portal to all federal, state and local government web resources and services.